Tracking 25709 objects as of 23-May-2022
HD Live streaming from Space Station
objects crossing your sky now

COSMOS 2251 DEB

Track COSMOS 2251 DEB now!
10-day predictions


NORAD ID: 34304
Int'l Code: 1993-036NA
Perigee: 704.9 km
Apogee: 928.9 km
Inclination: 74.0 °
Period: 101.1 minutes
Semi major axis: 7187 km
RCS: 0.0279 m2 (small)
Launch date: June 16, 1993
Source: Commonwealth of Independent States (former USSR) (CIS)
Launch site: PLESETSK MISSILE AND SPACE COMPLEX (PKMTR)

Note: This is SATELLITE DEBRIS
aabbcc
Your satellite tracking list
Your tracking list is empty




NASA's NSSDC Master Catalog

Two Line Element Set (TLE):
1 34304U 93036NA  22142.94128668  .00003632  00000-0  13862-2 0  9996
2 34304  74.0197 330.1210 0155808  54.9117  59.8711 14.24635492687145
Source of the keplerian elements: AFSPC